STARLINK-35826

Last updated on Sun Dec 07 2025 00:02:05 GMT+0000 (Coordinated Universal Time)

1 66375U 25254AD 25340.20361948 .00488243 00000+0 31327-2 0 9998 2 66375 53.1571 307.3032 0001805 100.1258 259.9966 15.74307496 4657
UTC large
Height (km)
Speed (km/s)
/
Latitude / Longitude
Inclination (degrees)
Orbital Period (minutes)
Azimuth
Elevation
Range (km)
Doppler Factor

Next 0 passes for location: London (51.5072 / 0.1276)

Sorry there are no passes over London.